Weather History for McGuire AFB, NJ

Change the Weather History Date:

Monday, July 29, 2013

  Actual Average Record
Temperature  
Mean Temperature 74 °F -  
Max Temperature 84 °F 83 °F 96 °F (2002)
Min Temperature 65 °F 64 °F 60 °F (2014)
Cooling Degree Days 10    
Growing Degree Days 24 (Base 50)    
Moisture  
Dew Point 66 °F    
Average Humidity 89    
Maximum Humidity 100    
Minimum Humidity 42    
Precipitation  
Precipitation 0.03 in - - ()
Sea Level Pressure  
Sea Level Pressure 29.99 in    
Wind  
Wind Speed 5 mph (WNW)    
Max Wind Speed 12 mph    
Max Gust Speed -    
Visibility 6 miles    
Events Fog , Rain    
Averages and records for this station are not official NWS values.
T = Trace of Precipitation, MM = Missing Value Source: NWS Daily Summary

Daily Weather History Graph

Daily Weather History Graph

Search for Another Location

Airport:

Trip Planner

Search our weather history database for the weather conditions in past years. The results will help you decide how hot, cold, wet, or windy it might be!

Date:

Astronomy

Jul. 29, 2013 Rise Set
Actual Time 5:54 AM EDT 8:14 PM EDT
Civil Twilight 5:23 AM EDT 8:45 PM EDT
Nautical Twilight 4:45 AM EDT 9:23 PM EDT
Astronomical Twilight 4:04 AM EDT 10:04 PM EDT
Moon No Moon Rise 1:33 PM EDT (7/29)
Length of Visible Light 15h 21m
Length of Day
14h 20m
Waning Gibbous, 51% of the Moon is Illuminated
Jul 29
Waning Gibbous
Jul 29
Last Quarter
Aug 6
New
Aug 14
First Quarter
Aug 20
Full

Hourly Weather History & Observations

Time (EDT) Temp. Heat Index Dew Point Humidity Pressure Visibility Wind Dir Wind Speed Gust Speed Precip Events Conditions
12:05 AM 68.0 °F - 66.2 °F 94% 29.95 in 10.0 mi ESE 5.8 mph - N/A   Scattered Clouds
12:28 AM 68.0 °F - 66.2 °F 94% 29.94 in 10.0 mi SSE 3.5 mph - N/A Rain Light Rain
12:31 AM 68.0 °F - 66.2 °F 94% 29.94 in 10.0 mi SSE 3.5 mph - N/A Rain Light Rain
12:40 AM 68.0 °F - 66.2 °F 94% 29.95 in 10.0 mi SSE 3.5 mph - N/A   Scattered Clouds
12:58 AM 68.2 °F - 67.1 °F 96% 29.95 in 10.0 mi Calm Calm - 0.01 in   Scattered Clouds
1:50 AM 68.0 °F - 68.0 °F 100% 29.96 in 10.0 mi West 10.4 mph - N/A   Scattered Clouds
1:58 AM 68.0 °F - 67.5 °F 98% 29.96 in 10.0 mi West 5.8 mph - N/A   Scattered Clouds
2:40 AM 68.0 °F - 68.0 °F 100% 29.96 in 10.0 mi WSW 11.5 mph - N/A   Overcast
2:42 AM 68.0 °F - 68.0 °F 100% 29.95 in 10.0 mi WSW 6.9 mph - N/A Rain Light Rain
2:46 AM 68.0 °F - 68.0 °F 100% 29.95 in 9.0 mi West 3.5 mph - N/A Rain Rain
2:48 AM 68.0 °F - 68.0 °F 100% 29.96 in 8.0 mi WNW 5.8 mph - N/A Rain Light Rain
2:56 AM 68.0 °F - 68.0 °F 100% 29.95 in 10.0 mi WNW 6.9 mph - N/A Rain Light Rain
2:58 AM 67.8 °F - 67.5 °F 99% 29.96 in 10.0 mi WNW 6.9 mph - 0.01 in Rain Light Rain
2:59 AM 68.0 °F - 68.0 °F 100% 29.96 in 10.0 mi NW 6.9 mph - N/A   Mostly Cloudy
3:53 AM 66.2 °F - 66.2 °F 100% 29.96 in 10.0 mi NNW 5.8 mph - N/A   Mostly Cloudy
3:58 AM 66.4 °F - 66.0 °F 99% 29.97 in 10.0 mi NNW 4.6 mph - 0.01 in   Mostly Cloudy
4:01 AM 66.2 °F - 66.2 °F 100% 29.97 in 10.0 mi NNW 4.6 mph - N/A   Scattered Clouds
4:58 AM 66.9 °F - 66.6 °F 99% 29.97 in 10.0 mi North 1.2 mph - N/A   Mostly Cloudy
5:58 AM 65.5 °F - 65.1 °F 99% 29.99 in 10.0 mi WSW 5.8 mph - N/A   Clear
6:10 AM 66.2 °F - 66.2 °F 100% 29.98 in 10.0 mi WSW 4.6 mph - N/A   Partly Cloudy
6:18 AM 66.2 °F - 66.2 °F 100% 29.97 in 2.0 mi West 2.3 mph - N/A   Scattered Clouds
6:19 AM 66.2 °F - 66.2 °F 100% 29.97 in 1.2 mi West 2.3 mph - N/A   Mostly Cloudy
6:20 AM 66.2 °F - 66.2 °F 100% 29.97 in 0.8 mi West 2.3 mph - N/A   Mist
6:21 AM 66.2 °F - 66.2 °F 100% 29.97 in 0.5 mi West 2.3 mph - N/A Fog Fog
6:23 AM 66.2 °F - 66.2 °F 100% 29.97 in 0.5 mi West 2.3 mph - N/A Fog Fog
6:24 AM 66.2 °F - 66.2 °F 100% 29.98 in 0.2 mi West 2.3 mph - N/A Fog Fog
6:25 AM 66.2 °F - 66.2 °F 100% 29.98 in 0.2 mi West 3.5 mph - N/A Fog Fog
6:26 AM 66.2 °F - 66.2 °F 100% 29.98 in 0.2 mi West 3.5 mph - N/A Fog Fog
6:28 AM 66.2 °F - 66.2 °F 100% 29.98 in 0.2 mi WSW 3.5 mph - N/A Fog Fog
6:29 AM 66.2 °F - 66.2 °F 100% 29.98 in 0.2 mi West 3.5 mph - N/A Fog Fog
6:58 AM 66.7 °F - 66.4 °F 99% 30.00 in 0.2 mi West 2.3 mph - N/A Fog Fog
7:08 AM 66.2 °F - 66.2 °F 100% 30.00 in 0.2 mi SW 3.5 mph - N/A Fog Fog
7:09 AM 66.2 °F - 66.2 °F 100% 30.00 in 0.2 mi SW 3.5 mph - N/A Fog Fog
7:16 AM 68.0 °F - 66.2 °F 94% 30.00 in 0.2 mi WSW 3.5 mph - N/A Fog Fog
7:17 AM 68.0 °F - 66.2 °F 94% 30.00 in 0.5 mi WSW 4.6 mph - N/A Fog Fog
7:21 AM 68.0 °F - 66.2 °F 94% 30.00 in 0.8 mi WSW 3.5 mph - N/A   Mist
7:22 AM 68.0 °F - 66.2 °F 94% 30.00 in 0.8 mi WSW 3.5 mph - N/A   Mist
7:23 AM 68.0 °F - 66.2 °F 94% 30.00 in 1.0 mi West 3.5 mph - N/A   Mist
7:24 AM 68.0 °F - 66.2 °F 94% 30.00 in 1.2 mi West 3.5 mph - N/A   Overcast
7:28 AM 68.0 °F - 66.2 °F 94% 30.00 in 1.2 mi WNW 3.5 mph - N/A   Overcast
7:29 AM 68.0 °F - 66.2 °F 94% 29.99 in 1.5 mi WNW 2.3 mph - N/A   Overcast
7:32 AM 68.0 °F - 68.0 °F 100% 29.99 in 1.8 mi NW 3.5 mph - N/A   Overcast
7:34 AM 68.0 °F - 68.0 °F 100% 29.99 in 2.0 mi NW 3.5 mph - N/A   Overcast
7:36 AM 68.0 °F - 68.0 °F 100% 29.99 in 3.0 mi NW 4.6 mph - N/A   Overcast
7:55 AM 68.0 °F - 68.0 °F 100% 30.00 in 10.0 mi NW 3.5 mph - N/A   Overcast
7:58 AM 68.7 °F - 68.5 °F 99% 30.01 in 10.0 mi WNW 4.6 mph - N/A   Overcast
8:23 AM 69.8 °F - 69.8 °F 100% 30.01 in 10.0 mi NW 5.8 mph - N/A   Mostly Cloudy
8:31 AM 71.6 °F - 69.8 °F 94% 30.01 in 10.0 mi NW 4.6 mph - N/A   Scattered Clouds
8:58 AM 73.4 °F - 67.5 °F 82% 30.03 in 10.0 mi WNW 6.9 mph - N/A   Clear
9:10 AM 73.4 °F - 66.2 °F 78% 30.02 in 10.0 mi NNW 5.8 mph - N/A Rain Light Rain
9:27 AM 73.4 °F - 66.2 °F 78% 30.02 in 10.0 mi NNW 5.8 mph - N/A   Clear
9:58 AM 75.2 °F - 66.2 °F 73% 30.04 in 10.0 mi West 5.8 mph - N/A   Clear
10:58 AM 77.7 °F - 67.5 °F 71% 30.04 in 10.0 mi WNW 6.9 mph - N/A   Partly Cloudy
11:58 AM 79.2 °F - 67.5 °F 67% 30.04 in 10.0 mi Variable 3.5 mph - N/A   Clear
12:58 PM 80.6 °F 82.7 °F 66.2 °F 61% 30.03 in 10.0 mi West 5.8 mph - N/A   Clear
1:59 PM 82.4 °F 84.6 °F 66.2 °F 58% 30.02 in 10.0 mi Variable 6.9 mph - N/A   Clear
2:59 PM 84.2 °F 85.6 °F 64.4 °F 51% 30.02 in 10.0 mi WNW 5.8 mph - N/A   Scattered Clouds
3:58 PM 84.2 °F 85.0 °F 62.6 °F 48% 30.02 in 10.0 mi WNW 4.6 mph - N/A   Scattered Clouds
4:58 PM 83.1 °F 82.9 °F 58.3 °F 43% 30.02 in 10.0 mi West 9.2 mph - N/A   Mostly Cloudy
6:58 PM 79.3 °F - 54.3 °F 42% 30.04 in 10.0 mi NW 9.2 mph - N/A   Clear
7:58 PM 75.6 °F - 56.5 °F 51% 30.06 in 10.0 mi NW 6.9 mph - N/A   Clear
8:58 PM 72.0 °F - 55.6 °F 56% 30.09 in 10.0 mi NW 4.6 mph - N/A   Clear
11:58 PM 67.8 °F - 56.1 °F 66% 30.12 in 10.0 mi WNW 4.6 mph - N/A   Clear